Weather History for KOXI - June, 2014

Change the Weather History Date:

Sunday, June 1, 2014

  Actual Average (KVPZ) Record (KVPZ)
Temperature  
Mean Temperature 75 °F 65 °F  
Max Temperature 90 °F 75 °F 92 °F (2009)
Min Temperature 61 °F 54 °F 40 °F (2003)
Degree Days  
Heating Degree Days 0 3  
Month to date heating degree days 3  
Since 1 June heating degree days 3  
Since 1 July heating degree days 6282  
Cooling Degree Days 10 3  
Month to date cooling degree days 3  
Year to date cooling degree days 50  
Since 1 June cooling degree days 3  
Growing Degree Days 25 (Base 50)    
Moisture  
Dew Point 55 °F    
Average Humidity 48    
Maximum Humidity 68    
Minimum Humidity 28    
Precipitation  
Precipitation 0.00 in 0.13 in 0.66 in (1999)
Month to date precipitation 0.13  
Year to date precipitation 13.11  
Sea Level Pressure  
Sea Level Pressure 30.04 in    
Wind  
Wind Speed 11 mph (South)    
Max Wind Speed 20 mph    
Max Gust Speed 30 mph    
Visibility 10 miles    
Events      
T = Trace of Precipitation, MM = Missing Value Source: NWS Daily Summary

Daily Weather History Graph

Daily Weather History Graph

Search for Another Location

Airport or City:

Trip Planner

Search our weather history database for the weather conditions in past years. The results will help you decide how hot, cold, wet, or windy it might be!

Date:

Astronomy

Jun. 01, 2014 Rise Set
Actual Time 5:15 AM CDT 8:13 PM CDT
Civil Twilight 4:42 AM CDT 8:46 PM CDT
Nautical Twilight 4:00 AM CDT 9:28 PM CDT
Astronomical Twilight 3:11 AM CDT 10:18 PM CDT
Moon 8:48 AM CDT (6/1) 11:07 PM CDT (6/1)
Length of Visible Light 16h 04m
Length of Day
14h 57m
Waxing Crescent, 14% of the Moon is Illuminated
Jun 1
Waxing Crescent
Jun 5
First Quarter
Jun 12
Full
Jun 19
Last Quarter
Jun 27
New

Hourly Weather History & Observations

Time (CDT) Temp. Heat Index Dew Point Humidity Pressure Visibility Wind Dir Wind Speed Gust Speed Precip Events Conditions
12:15 AM 69.4 °F - 52.7 °F 55% 30.12 in 10.0 mi ESE 10.4 mph - N/A   Clear
12:35 AM 69.1 °F - 52.7 °F 56% 30.12 in 10.0 mi SE 10.4 mph - N/A   Clear
1:15 AM 69.8 °F - 52.2 °F 53% 30.13 in 10.0 mi SE 12.7 mph - N/A   Clear
1:35 AM 69.8 °F - 51.6 °F 52% 30.12 in 10.0 mi SE 11.5 mph - N/A   Clear
1:55 AM 69.3 °F - 51.3 °F 53% 30.12 in 10.0 mi SE 11.5 mph - N/A   Clear
2:15 AM 68.9 °F - 50.9 °F 53% 30.12 in 10.0 mi SE 10.4 mph - N/A   Clear
2:35 AM 68.4 °F - 50.7 °F 53% 30.12 in 10.0 mi SE 10.4 mph - N/A   Clear
3:15 AM 67.3 °F - 50.5 °F 55% 30.11 in 10.0 mi SE 9.2 mph - N/A   Clear
3:35 AM 66.6 °F - 50.5 °F 56% 30.12 in 10.0 mi SSE 6.9 mph - N/A   Clear
4:15 AM 65.1 °F - 50.7 °F 60% 30.11 in 10.0 mi SE 6.9 mph - N/A   Clear
4:35 AM 64.2 °F - 50.9 °F 62% 30.11 in 10.0 mi SE 6.9 mph - N/A   Clear
4:55 AM 63.3 °F - 50.9 °F 64% 30.11 in 10.0 mi SE 6.9 mph - N/A   Clear
5:15 AM 62.8 °F - 51.1 °F 66% 30.12 in 10.0 mi SE 6.9 mph - N/A   Clear
5:35 AM 61.9 °F - 51.3 °F 68% 30.12 in 10.0 mi SE 6.9 mph - N/A   Clear
5:55 AM 62.1 °F - 51.4 °F 68% 30.12 in 10.0 mi SE 8.1 mph - N/A   Clear
6:15 AM 62.4 °F - 51.4 °F 67% 30.12 in 10.0 mi SE 8.1 mph - N/A   Clear
6:35 AM 63.0 °F - 51.8 °F 67% 30.12 in 10.0 mi SSE 8.1 mph - N/A   Clear
6:55 AM 65.3 °F - 52.3 °F 63% 30.12 in 10.0 mi SSE 8.1 mph - N/A   Clear
7:15 AM 68.2 °F - 52.7 °F 58% 30.11 in 10.0 mi SSE 9.2 mph - N/A   Clear
7:35 AM 70.2 °F - 52.3 °F 53% 30.11 in 10.0 mi South 12.7 mph - N/A   Clear
7:55 AM 71.8 °F - 52.2 °F 50% 30.11 in 10.0 mi South 11.5 mph - N/A   Clear
8:15 AM 73.2 °F - 52.0 °F 47% 30.11 in 10.0 mi South 12.7 mph - N/A   Clear
8:35 AM 74.8 °F - 52.0 °F 45% 30.10 in 10.0 mi South 12.7 mph - N/A   Clear
8:55 AM 76.1 °F - 52.2 °F 43% 30.10 in 10.0 mi South 11.5 mph - N/A   Clear
9:15 AM 77.0 °F - 52.7 °F 43% 30.10 in 10.0 mi South 11.5 mph - N/A   Clear
9:35 AM 78.6 °F - 52.0 °F 39% 30.10 in 10.0 mi SSE 13.8 mph - N/A   Clear
10:15 AM 81.1 °F - 50.2 °F 34% 30.10 in 10.0 mi South 12.7 mph 19.6 mph N/A   Clear
10:35 AM 82.0 °F - 50.5 °F 33% 30.10 in 10.0 mi SSE 13.8 mph 18.4 mph N/A   Clear
10:55 AM 82.9 °F - 50.7 °F 33% 30.10 in 10.0 mi South 9.2 mph 17.3 mph N/A   Clear
11:15 AM 83.8 °F - 50.9 °F 32% 30.10 in 10.0 mi South 11.5 mph 16.1 mph N/A   Clear
11:35 AM 84.6 °F - 50.7 °F 31% 30.09 in 10.0 mi SSW 5.8 mph 18.4 mph N/A   Clear
11:55 AM 84.6 °F - 50.4 °F 31% 30.08 in 10.0 mi SSW 9.2 mph - N/A   Clear
12:15 PM 85.3 °F - 50.2 °F 30% 30.08 in 10.0 mi South 8.1 mph - N/A   Clear
12:35 PM 85.6 °F - 51.1 °F 30% 30.06 in 10.0 mi South 10.4 mph - N/A   Clear
1:15 PM 86.9 °F - 50.2 °F 28% 30.05 in 10.0 mi SW 10.4 mph 16.1 mph N/A   Clear
1:35 PM 87.3 °F - 50.7 °F 28% 30.04 in 10.0 mi South 8.1 mph 16.1 mph N/A   Clear
1:55 PM 87.4 °F - 51.4 °F 29% 30.03 in 10.0 mi South 11.5 mph 17.3 mph N/A   Clear
2:15 PM 87.6 °F - 52.2 °F 30% 30.02 in 10.0 mi South 9.2 mph 19.6 mph N/A   Clear
2:55 PM 88.0 °F 85.7 °F 53.2 °F 30% 30.00 in 10.0 mi SW 5.8 mph 10.4 mph N/A   Clear
3:15 PM 88.9 °F 86.9 °F 54.3 °F 31% 29.98 in 10.0 mi SSE 10.4 mph - N/A   Clear
3:35 PM 88.7 °F 86.7 °F 54.3 °F 31% 29.97 in 10.0 mi South 13.8 mph 17.3 mph N/A   Clear
3:55 PM 88.9 °F 86.9 °F 54.5 °F 31% 29.96 in 10.0 mi SSE 11.5 mph 18.4 mph N/A   Scattered Clouds
4:15 PM 88.7 °F 86.9 °F 55.0 °F 32% 29.96 in 10.0 mi SSW 12.7 mph 17.3 mph N/A   Scattered Clouds
4:35 PM 88.5 °F 86.7 °F 55.2 °F 32% 29.95 in 10.0 mi South 9.2 mph - N/A   Clear
5:15 PM 88.9 °F 87.1 °F 55.4 °F 32% 29.93 in 10.0 mi South 11.5 mph - N/A   Clear
5:35 PM 89.1 °F 87.3 °F 55.4 °F 32% 29.93 in 10.0 mi SSW 15.0 mph 19.6 mph N/A   Clear
5:55 PM 87.1 °F 85.7 °F 56.1 °F 35% 29.93 in 10.0 mi SSW 16.1 mph - N/A   Clear
6:15 PM 86.2 °F 85.2 °F 57.6 °F 38% 29.93 in 10.0 mi South 15.0 mph - N/A   Scattered Clouds
6:35 PM 85.8 °F 85.0 °F 58.5 °F 39% 29.94 in 10.0 mi SW 13.8 mph - N/A   Mostly Cloudy
6:55 PM 85.3 °F 85.4 °F 60.8 °F 44% 29.93 in 10.0 mi SSW 17.3 mph 25.3 mph N/A   Scattered Clouds
7:15 PM 84.4 °F 85.0 °F 62.2 °F 47% 29.93 in 10.0 mi SW 19.6 mph 23.0 mph N/A   Clear
7:35 PM 82.4 °F 83.4 °F 62.4 °F 51% 29.94 in 10.0 mi SW 16.1 mph 29.9 mph N/A   Clear
7:55 PM 80.4 °F 81.4 °F 61.5 °F 52% 29.94 in 10.0 mi SW 18.4 mph 25.3 mph N/A   Clear
8:15 PM 79.2 °F - 61.7 °F 55% 29.95 in 10.0 mi SSW 12.7 mph - N/A   Clear
8:35 PM 77.7 °F - 62.1 °F 58% 29.95 in 10.0 mi SSW 11.5 mph - N/A   Clear
8:55 PM 77.0 °F - 61.7 °F 59% 29.97 in 10.0 mi SSW 9.2 mph - N/A   Clear
9:15 PM 76.3 °F - 61.3 °F 60% 29.98 in 10.0 mi SSW 10.4 mph - N/A   Clear
9:35 PM 76.1 °F - 61.5 °F 60% 29.98 in 10.0 mi South 13.8 mph - N/A   Clear
9:55 PM 75.7 °F - 62.1 °F 62% 29.98 in 10.0 mi SSW 12.7 mph - N/A   Clear
10:15 PM 75.4 °F - 62.4 °F 64% 29.99 in 10.0 mi SSW 13.8 mph - N/A   Scattered Clouds
10:35 PM 75.2 °F - 62.6 °F 65% 29.99 in 10.0 mi South 15.0 mph - N/A   Scattered Clouds
10:55 PM 74.8 °F - 62.8 °F 66% 29.99 in 10.0 mi South 11.5 mph 18.4 mph N/A   Clear
11:15 PM 74.7 °F - 63.0 °F 67% 29.99 in 10.0 mi South 12.7 mph 18.4 mph N/A   Scattered Clouds
11:35 PM 74.7 °F - 62.6 °F 66% 29.99 in 10.0 mi South 11.5 mph - N/A   Clear
11:55 PM 74.7 °F - 62.4 °F 66% 29.99 in 10.0 mi South 12.7 mph - N/A   Clear